Regional Weather Roundup
Issued by NWS

Home | Current Version | Previous Version | Graphics & Text | Print | Product List | Glossary On
Versions: 1 2 3 4 5 6 7 8 9 10 11 12 13 14 15 16 17 18 19 20 21 22 23 24 25 26 27 28 29 30 31 32 33 34 35 36 37 38 39 40 41 42 43 44 45 46 47 48 49 50
000
ASUS43 KLSX 312007
RWRMO

WEATHER SUMMARY FOR MISSOURI
NATIONAL WEATHER SERVICE SPRINGFIELD MO
300 PM CDT THU JUL 31 2014

NOTE: "FAIR" INDICATES FEW OR NO CLOUDS BELOW 12,000 FEET WITH NO
       SIGNIFICANT WEATHER AND/OR OBSTRUCTIONS TO VISIBILITY.
       CURRENT SKY AND/OR WEATHER CONDITIONS ARE NOT AVAILABLE FOR
       CHILLICOTHE AND FARMINGTON.

MOZ001>031-035>038-043-044-053-054-312100-
...NORTHERN AND WESTERN MISSOURI...

CITY           SKY/WX    TMP DP  RH WIND       PRES   REMARKS
KANSAS CTY INT PTSUNNY   83  57  41 N7        30.09F
KANSAS C DTWN  MOSUNNY   84  54  35 CALM      30.07F
LEE`S SUMMIT   MOSUNNY   82  54  37 VRB6      30.09F
ST JOSEPH      SUNNY     82  57  42 SW8       30.08F
CHILLICOTHE      N/A     83  53  35 VRB3      30.09F
KIRKSVILLE     SUNNY     83  54  36 CALM      30.09F

$$
MOZ066>068-077>081-088>096-101>105-312100-
...SOUTHWEST MISSOURI...

CITY           SKY/WX    TMP DP  RH WIND       PRES   REMARKS
SPRINGFIELD    PTSUNNY   78  62  57 SE5       30.08F
JOPLIN         PTSUNNY   79  63  57 NE6       30.08F

$$
MOZ032>034-039>042-045>050-055>058-069>072-312100-
...CENTRAL MISSOURI...

CITY           SKY/WX    TMP DP  RH WIND       PRES   REMARKS
COLUMBIA       MOSUNNY   84  55  36 VRB5      30.08F
JEFFERSON CITY PTSUNNY   84  54  35 VRB5      30.06F
ROLLA          PTSUNNY   83  52  34 VRB3      30.07F
SEDALIA        MOSUNNY   84  58  40 N7        30.09F
OSAGE BEACH      N/A     82  57  42 N6        30.07F

$$
MOZ051-052-059>065-312100-
...EAST CENTRAL MISSOURI...

CITY           SKY/WX    TMP DP  RH WIND       PRES   REMARKS
ST LOUIS INTL  PTSUNNY   83  58  42 VRB3      30.08S
SPIRIT OF STL  PTSUNNY   86  54  33 N6        30.05F
ST CHARLES     SUNNY     85  56  37 NW6       30.06F

$$
MOZ072>076-082>087-097>100-106>115-312100-
...SOUTH CENTRAL AND SOUTHEAST MISSOURI...

CITY           SKY/WX    TMP DP  RH WIND       PRES   REMARKS
CAPE GIRARDEAU MOSUNNY   79  65  62 S8        30.09S
FARMINGTON     PTSUNNY   84  57  39 SE5       30.10F
POPLAR BLUFF   CLOUDY    76  64  66 SW8       30.08F
WEST PLAINS    CLOUDY    74  63  68 SW6       30.11F

$$



USA.gov is the U.S. government's official web portal to all federal, state and local government web resources and services.